#timestamp,LO_Frequency,Hit,StdDev 
1539396015.5,286047000.4,N
1539396035.4,286046998.6,N
1539396055.3,286046998.4,N
1539396075.1,286047001.0,N
1539396095.9,286047001.0,N
1539396115.7,286047002.8,N
1539396135.5,286047000.3,N
1539396155.4,286047002.7,N
1539396175.2,286047002.0,N
1539396195.0,286047002.8,N
1539396195.9,286047002.8,N
1539396215.8,286047000.8,N
1539396235.6,286047000.5,N
1539396255.5,286047000.5,N
1539396275.3,286047000.3,N
1539396295.1,286047001.2,N
1539396315.9,286047000.9,N
1539396335.7,286046998.1,N
1539396355.5,286047000.9,N
1539396375.4,286047001.1,N
1539396395.2,286047000.8,N
1539396415.7,286047000.6,N
1539396435.5,286046999.8,N
1539396455.3,286047000.4,N
1539396475.2,286047000.0,N
1539396495.0,286047001.2,N
1539396495.9,286047001.2,N
1539396515.5,286047000.6,N
1539396535.3,286047001.0,N
1539396555.1,286047001.0,N
1539396575.9,286046998.2,N
1539396595.7,286047000.8,N
1539396615.5,286047002.5,N
1539396635.4,286047000.1,N
1539396655.2,286047000.6,N
1539396675.1,286046998.7,N
1539396676.0,286046998.7,N
1539396695.8,286047002.4,N
1539396715.6,286047001.6,N
1539396735.5,286047002.3,N
1539396755.3,286047001.4,N
1539396775.2,286047003.7,Y
1539396795.9,286047002.0,P
1539396815.7,286047002.5,P
1539396835.6,286047001.8,N
1539396855.0,286047001.5,N
1539396855.9,286047001.5,N
1539396875.8,286047001.5,N
1539396895.6,286047001.5,N
1539396915.4,286047002.6,Y
1539396935.3,286047000.0,P
1539396955.1,286047000.5,N
1539396975.9,286047000.8,N
1539396995.7,286046998.5,N
1539397015.5,286047001.0,N
1539397035.4,286047000.5,N
1539397055.2,286046998.1,N
1539397075.0,286046998.1,N
1539397075.9,286046998.1,N
1539397095.8,286046998.5,N
1539397115.6,286046999.0,N
1539397135.5,286046997.4,N
1539397155.3,286046999.2,N
1539397175.1,286046997.3,N
1539397195.9,286046998.9,N
1539397215.7,286046999.2,N
1539397235.5,286046997.1,N
1539397255.4,286046999.3,N
1539397275.2,286046998.5,N
1539397295.1,286046998.9,N
1539397296.0,286046998.9,N
1539397315.8,286046999.4,N
1539397335.6,286047000.1,N
1539397355.5,286047000.6,N
1539397375.3,286046999.7,N
1539397395.1,286047000.1,N
1539397415.9,286046999.9,N
1539397435.7,286047002.3,N
1539397455.6,286047001.6,N
1539397475.4,286047004.4,Y
1539397495.2,286047001.8,P
1539397515.1,286047001.7,N
1539397516.0,286047001.7,N
1539397535.8,286047003.9,Y
1539397555.7,286047001.3,P
1539397575.5,286047001.7,P
1539397595.3,286047002.3,P
1539397615.2,286047000.2,N
1539397635.0,286047002.2,Y
1539397635.9,286047002.2,P
1539397655.1,286047002.7,P
1539397656.0,286047002.7,P
1539397675.8,286047000.2,N
1539397695.6,286047000.8,N
1539397715.5,286046999.8,N
1539397735.3,286047002.7,N
1539397755.2,286047000.3,N
1539397775.9,286047000.5,N
1539397795.7,286047000.3,N
1539397815.6,286047001.0,N
1539397835.4,286047001.0,N
1539397855.2,286047000.7,N
1539397875.1,286046998.8,N
1539397876.0,286046998.8,N
1539397895.8,286046999.1,N
1539397915.7,286046999.0,N
1539397935.5,286046998.9,N
1539397955.3,286046998.8,N
1539397975.2,286046998.2,N
1539397995.0,286046998.5,N
1539397995.9,286046998.5,N
1539398015.7,286046998.2,N
1539398035.6,286046998.7,N
1539398055.4,286046998.4,N
1539398075.3,286046998.8,N
1539398095.1,286046999.0,N
1539398096.0,286046999.0,N
1539398115.8,286046999.6,N
1539398135.7,286046996.5,N
1539398155.5,286046996.6,N
1539398175.4,286046994.9,Y
1539398195.2,286046996.6,P
1539398215.1,286046999.0,N
1539398216.0,286046999.0,N
1539398235.8,286046996.5,Y
1539398255.6,286047001.2,P
1539398275.5,286046998.6,N
1539398295.3,286046998.3,N
1539398315.1,286047001.0,N
1539398335.9,286047001.0,N
1539398355.7,286047000.8,N
1539398375.6,286047001.1,N
1539398395.4,286047000.9,N
1539398415.2,286046998.5,N
1539398435.1,286046998.5,N
1539398436.0,286046998.5,N
1539398455.8,286046999.6,N
1539398505.7,286046999.6,E
1539398515.6,286046996.8,N
1539398535.4,286046996.8,P
1539398555.3,286046996.9,P
1539398575.1,286046996.8,Y
1539398595.9,286047000.1,P
1539398615.7,286047001.9,N
1539398635.5,286047004.4,N
1539398655.4,286047004.2,N
1539398675.2,286047003.9,N
1539398695.0,286047003.9,N
1539398695.9,286047003.9,N
1539398715.8,286047001.3,N
1539398735.6,286047001.3,N
1539398755.5,286047001.8,N
1539398775.3,286047000.1,N
1539398795.1,286047001.9,N
1539398815.9,286047004.0,N
1539398835.7,286047002.2,N
1539398855.6,286047002.4,N
1539398875.4,286047001.6,N
1539398895.2,286047002.0,N
1539398915.1,286047001.6,N
1539398916.0,286047001.6,N
1539398935.8,286047001.3,N
1539398955.6,286046999.7,N
1539398975.5,286047000.2,N
1539398995.3,286047002.1,N
1539399015.2,286047001.6,N
1539399035.9,286046999.9,N
1539399055.7,286047000.3,N
1539399075.6,286046999.9,N
1539399095.4,286047000.5,N
1539399115.2,286047001.1,N
1539399135.1,286046999.9,N
1539399136.0,286046999.9,N
1539399155.8,286047000.0,N
1539399175.7,286047001.0,N
1539399195.5,286047000.7,N
1539399215.3,286047000.9,N
1539399235.2,286047000.7,N
1539399255.0,286047000.6,N
1539399255.9,286047000.6,N
1539399275.7,286047001.2,N
1539399295.6,286047001.0,N
1539399315.4,286047000.1,N
1539399335.3,286047000.2,N
1539399355.1,286047002.3,N
1539399375.8,286047000.0,N
1539399395.7,286047000.1,N
1539399415.5,286047000.3,N
1539399435.4,286047002.8,Y
1539399455.2,286047000.9,P
1539399475.0,286047000.6,P
1539399475.9,286047000.6,P
1539399495.8,286047000.6,Y
1539399515.6,286047000.6,P
1539399535.4,286046998.1,P
1539399555.3,286046998.5,N
1539399575.1,286046998.3,N
1539399595.9,286046999.1,N
